Year,Month,Day,Hour,Minute,Value (Times are PST for temperature in C)
2008,09,29,00,00,11.10
2008,09,29,00,01,11.10
2008,09,29,00,02,11.00
2008,09,29,00,03,11.00
2008,09,29,00,04,11.00
2008,09,29,00,05,11.00
2008,09,29,00,06,10.90
2008,09,29,00,07,10.90
2008,09,29,00,08,10.80
2008,09,29,00,09,10.80
2008,09,29,00,10,10.80
2008,09,29,00,11,10.80
2008,09,29,00,12,10.80
2008,09,29,00,13,10.80
2008,09,29,00,14,10.80
2008,09,29,00,15,10.90
2008,09,29,00,16,10.90
2008,09,29,00,17,10.90
2008,09,29,00,18,10.90
2008,09,29,00,19,10.90
2008,09,29,00,20,10.90
2008,09,29,00,21,10.90
2008,09,29,00,22,10.80
2008,09,29,00,23,10.80
2008,09,29,00,24,10.80
2008,09,29,00,25,10.80
2008,09,29,00,26,10.80
2008,09,29,00,27,10.80
2008,09,29,00,28,10.70
2008,09,29,00,29,10.70
2008,09,29,00,30,10.70
2008,09,29,00,31,10.60
2008,09,29,00,32,10.60
2008,09,29,00,33,10.50
2008,09,29,00,34,10.50
2008,09,29,00,35,10.50
2008,09,29,00,36,10.50
2008,09,29,00,37,10.50
2008,09,29,00,38,10.40
2008,09,29,00,39,10.40
2008,09,29,00,40,10.40
2008,09,29,00,41,10.40
2008,09,29,00,42,10.40
2008,09,29,00,43,10.40
2008,09,29,00,44,10.40
2008,09,29,00,45,10.40
2008,09,29,00,46,10.40
2008,09,29,00,47,10.40
2008,09,29,00,48,10.40
2008,09,29,00,49,10.30
2008,09,29,00,50,10.30
2008,09,29,00,51,10.30
2008,09,29,00,52,10.20
2008,09,29,00,53,10.10
2008,09,29,00,54,10.10
2008,09,29,00,55,10.10
2008,09,29,00,56,10.10
2008,09,29,00,57,10.10
2008,09,29,00,58,10.20
2008,09,29,00,59,10.20
2008,09,29,01,00,10.30
2008,09,29,01,01,10.30
2008,09,29,01,02,10.30
2008,09,29,01,03,10.40
2008,09,29,01,04,10.40
2008,09,29,01,05,10.50
2008,09,29,01,06,10.50
2008,09,29,01,07,10.50
2008,09,29,01,08,10.50
2008,09,29,01,09,10.60
2008,09,29,01,10,10.60
2008,09,29,01,11,10.60
2008,09,29,01,12,10.60
2008,09,29,01,13,10.60
2008,09,29,01,14,10.60
2008,09,29,01,15,10.60
2008,09,29,01,16,10.60
2008,09,29,01,17,10.60
2008,09,29,01,18,10.60
2008,09,29,01,19,10.50
2008,09,29,01,20,10.50
2008,09,29,01,21,10.40
2008,09,29,01,22,10.40
2008,09,29,01,23,10.40
2008,09,29,01,24,10.40
2008,09,29,01,25,10.40
2008,09,29,01,26,10.30
2008,09,29,01,27,10.30
2008,09,29,01,28,10.30
2008,09,29,01,29,10.30
2008,09,29,01,30,10.20
2008,09,29,01,31,10.20
2008,09,29,01,32,10.10
2008,09,29,01,33,10.10
2008,09,29,01,34,10.00
2008,09,29,01,35,10.00
2008,09,29,01,36,9.90
2008,09,29,01,37,9.90
2008,09,29,01,38,9.80
2008,09,29,01,39,9.80
2008,09,29,01,40,9.80
2008,09,29,01,41,9.80
2008,09,29,01,42,9.70
2008,09,29,01,43,9.70
2008,09,29,01,44,9.70
2008,09,29,01,45,9.60
2008,09,29,01,46,9.60
2008,09,29,01,47,9.50
2008,09,29,01,48,9.50
2008,09,29,01,49,9.40
2008,09,29,01,50,9.40
2008,09,29,01,51,9.40
2008,09,29,01,52,9.40
2008,09,29,01,53,9.40
2008,09,29,01,54,9.40
2008,09,29,01,55,9.40
2008,09,29,01,56,9.40
2008,09,29,01,57,9.40
2008,09,29,01,58,9.30
2008,09,29,01,59,9.30
2008,09,29,02,00,9.30
2008,09,29,02,01,9.30
2008,09,29,02,02,9.20
2008,09,29,02,03,9.20
2008,09,29,02,04,9.10
2008,09,29,02,05,9.10
2008,09,29,02,06,9.10
2008,09,29,02,07,9.10
2008,09,29,02,08,9.10
2008,09,29,02,09,9.10
2008,09,29,02,10,9.10
2008,09,29,02,11,9.20
2008,09,29,02,12,9.20
2008,09,29,02,13,9.20
2008,09,29,02,14,9.20
2008,09,29,02,15,9.30
2008,09,29,02,16,9.30
2008,09,29,02,17,9.30
2008,09,29,02,18,9.30
2008,09,29,02,19,9.30
2008,09,29,02,20,9.30
2008,09,29,02,21,9.20
2008,09,29,02,22,9.20
2008,09,29,02,23,9.20
2008,09,29,02,24,9.20
2008,09,29,02,25,9.20
2008,09,29,02,26,9.20
2008,09,29,02,27,9.20
2008,09,29,02,28,9.20
2008,09,29,02,29,9.20
2008,09,29,02,30,9.20
2008,09,29,02,31,9.10
2008,09,29,02,32,9.10
2008,09,29,02,33,9.10
2008,09,29,02,34,9.10
2008,09,29,02,35,9.10
2008,09,29,02,36,9.10
2008,09,29,02,37,9.00
2008,09,29,02,38,9.00
2008,09,29,02,39,9.00
2008,09,29,02,40,9.00
2008,09,29,02,41,9.00
2008,09,29,02,42,9.00
2008,09,29,02,43,9.00
2008,09,29,02,44,8.90
2008,09,29,02,45,8.90
2008,09,29,02,46,8.90
2008,09,29,02,47,8.90
2008,09,29,02,48,8.90
2008,09,29,02,49,8.90
2008,09,29,02,50,8.90
2008,09,29,02,51,8.90
2008,09,29,02,52,8.80
2008,09,29,02,53,8.80
2008,09,29,02,54,8.80
2008,09,29,02,55,8.80
2008,09,29,02,56,8.80
2008,09,29,02,57,8.70
2008,09,29,02,58,8.70
2008,09,29,02,59,8.80
2008,09,29,03,00,8.80
2008,09,29,03,01,8.70
2008,09,29,03,02,8.70
2008,09,29,03,03,8.70
2008,09,29,03,04,8.60
2008,09,29,03,05,8.60
2008,09,29,03,06,8.60
2008,09,29,03,07,8.60
2008,09,29,03,08,8.70
2008,09,29,03,09,8.80
2008,09,29,03,10,8.80
2008,09,29,03,11,8.80
2008,09,29,03,12,8.90
2008,09,29,03,13,8.90
2008,09,29,03,14,8.90
2008,09,29,03,15,9.00
2008,09,29,03,16,9.00
2008,09,29,03,17,9.00
2008,09,29,03,18,9.10
2008,09,29,03,19,9.10
2008,09,29,03,20,9.10
2008,09,29,03,21,9.10
2008,09,29,03,22,9.10
2008,09,29,03,23,9.10
2008,09,29,03,24,9.10
2008,09,29,03,25,9.10
2008,09,29,03,26,9.10
2008,09,29,03,27,9.10
2008,09,29,03,28,9.10
2008,09,29,03,29,9.10
2008,09,29,03,30,9.10
2008,09,29,03,31,9.10
2008,09,29,03,32,9.10
2008,09,29,03,33,9.00
2008,09,29,03,34,9.00
2008,09,29,03,35,9.00
2008,09,29,03,36,9.00
2008,09,29,03,37,9.00
2008,09,29,03,38,9.00
2008,09,29,03,39,9.00
2008,09,29,03,40,9.00
2008,09,29,03,41,8.90
2008,09,29,03,42,8.90
2008,09,29,03,43,8.90
2008,09,29,03,44,8.90
2008,09,29,03,45,8.90
2008,09,29,03,46,8.90
2008,09,29,03,47,8.80
2008,09,29,03,48,8.80
2008,09,29,03,49,8.80
2008,09,29,03,50,8.80
2008,09,29,03,51,8.80
2008,09,29,03,52,8.80
2008,09,29,03,53,8.80
2008,09,29,03,54,8.80
2008,09,29,03,55,8.80
2008,09,29,03,56,8.80
2008,09,29,03,57,8.80
2008,09,29,03,58,8.80
2008,09,29,03,59,8.80
2008,09,29,04,00,8.80
2008,09,29,04,01,8.70
2008,09,29,04,02,8.70
2008,09,29,04,03,8.70
2008,09,29,04,04,8.60
2008,09,29,04,05,8.50
2008,09,29,04,06,8.50
2008,09,29,04,07,8.50
2008,09,29,04,08,8.40
2008,09,29,04,09,8.40
2008,09,29,04,10,8.30
2008,09,29,04,11,8.30
2008,09,29,04,12,8.30
2008,09,29,04,13,8.30
2008,09,29,04,14,8.20
2008,09,29,04,15,8.20
2008,09,29,04,16,8.20
2008,09,29,04,17,8.30
2008,09,29,04,18,8.20
2008,09,29,04,19,8.30
2008,09,29,04,20,8.30
2008,09,29,04,21,8.30
2008,09,29,04,22,8.30
2008,09,29,04,23,8.30
2008,09,29,04,24,8.30
2008,09,29,04,25,8.30
2008,09,29,04,26,8.30
2008,09,29,04,27,8.30
2008,09,29,04,28,8.30
2008,09,29,04,29,8.30
2008,09,29,04,30,8.20
2008,09,29,04,31,8.20
2008,09,29,04,32,8.20
2008,09,29,04,33,8.20
2008,09,29,04,34,8.20
2008,09,29,04,35,8.20
2008,09,29,04,36,8.20
2008,09,29,04,37,8.20
2008,09,29,04,38,8.30
2008,09,29,04,39,8.30
2008,09,29,04,40,8.30
2008,09,29,04,41,8.30
2008,09,29,04,42,8.30
2008,09,29,04,43,8.30
2008,09,29,04,44,8.40
2008,09,29,04,45,8.40
2008,09,29,04,46,8.40
2008,09,29,04,47,8.40
2008,09,29,04,48,8.40
2008,09,29,04,49,8.40
2008,09,29,04,50,8.40
2008,09,29,04,51,8.40
2008,09,29,04,52,8.40
2008,09,29,04,53,8.30
2008,09,29,04,54,8.30
2008,09,29,04,55,8.30
2008,09,29,04,56,8.30
2008,09,29,04,57,8.30
2008,09,29,04,58,8.30
2008,09,29,04,59,8.30
2008,09,29,05,00,8.30
2008,09,29,05,01,8.30
2008,09,29,05,02,8.30
2008,09,29,05,03,8.30
2008,09,29,05,04,8.30
2008,09,29,05,05,8.30
2008,09,29,05,06,8.30
2008,09,29,05,07,8.30
2008,09,29,05,08,8.30
2008,09,29,05,09,8.30
2008,09,29,05,10,8.30
2008,09,29,05,11,8.30
2008,09,29,05,12,8.30
2008,09,29,05,13,8.30
2008,09,29,05,14,8.30
2008,09,29,05,15,8.30
2008,09,29,05,16,8.30
2008,09,29,05,17,8.30
2008,09,29,05,18,8.30
2008,09,29,05,19,8.30
2008,09,29,05,20,8.30
2008,09,29,05,21,8.30
2008,09,29,05,22,8.30
2008,09,29,05,23,8.20
2008,09,29,05,24,8.20
2008,09,29,05,25,8.20
2008,09,29,05,26,8.20
2008,09,29,05,27,8.20
2008,09,29,05,28,8.20
2008,09,29,05,29,8.20
2008,09,29,05,30,8.20
2008,09,29,05,31,8.20
2008,09,29,05,32,8.20
2008,09,29,05,33,8.20
2008,09,29,05,34,8.30
2008,09,29,05,35,8.30
2008,09,29,05,36,8.20
2008,09,29,05,37,8.20
2008,09,29,05,38,8.20
2008,09,29,05,39,8.10
2008,09,29,05,40,8.10
2008,09,29,05,41,8.10
2008,09,29,05,42,8.10
2008,09,29,05,43,8.00
2008,09,29,05,44,8.00
2008,09,29,05,45,8.00
2008,09,29,05,46,7.90
2008,09,29,05,47,7.90
2008,09,29,05,48,7.90
2008,09,29,05,49,7.90
2008,09,29,05,50,7.80
2008,09,29,05,51,7.80
2008,09,29,05,52,7.80
2008,09,29,05,53,7.80
2008,09,29,05,54,7.80
2008,09,29,05,55,7.80
2008,09,29,05,56,7.80
2008,09,29,05,57,7.90
2008,09,29,05,58,7.90
2008,09,29,05,59,8.00
2008,09,29,06,00,8.00
2008,09,29,06,01,8.10
2008,09,29,06,02,8.10
2008,09,29,06,03,8.10
2008,09,29,06,04,8.10
2008,09,29,06,05,8.10
2008,09,29,06,06,8.10
2008,09,29,06,07,8.10
2008,09,29,06,08,8.10
2008,09,29,06,09,8.10
2008,09,29,06,10,8.10
2008,09,29,06,11,8.10
2008,09,29,06,12,8.10
2008,09,29,06,13,8.10
2008,09,29,06,14,8.10
2008,09,29,06,15,8.00
2008,09,29,06,16,8.00
2008,09,29,06,17,8.00
2008,09,29,06,18,8.00
2008,09,29,06,19,8.00
2008,09,29,06,20,8.00
2008,09,29,06,21,8.10
2008,09,29,06,22,8.10
2008,09,29,06,23,8.00
2008,09,29,06,24,8.00
2008,09,29,06,25,8.00
2008,09,29,06,26,8.00
2008,09,29,06,27,8.00
2008,09,29,06,28,8.10
2008,09,29,06,29,8.10
2008,09,29,06,30,8.10
2008,09,29,06,31,8.10
2008,09,29,06,32,8.10
2008,09,29,06,33,8.20
2008,09,29,06,34,8.20
2008,09,29,06,35,8.20
2008,09,29,06,36,8.20
2008,09,29,06,37,8.20
2008,09,29,06,38,8.20
2008,09,29,06,39,8.20
2008,09,29,06,40,8.20
2008,09,29,06,41,8.30
2008,09,29,06,42,8.30
2008,09,29,06,43,8.30
2008,09,29,06,44,8.30
2008,09,29,06,45,8.30
2008,09,29,06,46,8.30
2008,09,29,06,47,8.30
2008,09,29,06,48,8.30
2008,09,29,06,49,8.30
2008,09,29,06,50,8.30
2008,09,29,06,51,8.30
2008,09,29,06,52,8.30
2008,09,29,06,53,8.30
2008,09,29,06,54,8.30
2008,09,29,06,55,8.30
2008,09,29,06,56,8.20
2008,09,29,06,57,8.20
2008,09,29,06,58,8.20
2008,09,29,06,59,8.20
2008,09,29,07,00,8.20
2008,09,29,07,01,8.20
2008,09,29,07,02,8.20
2008,09,29,07,03,8.30
2008,09,29,07,04,8.30
2008,09,29,07,05,8.30
2008,09,29,07,06,8.20
2008,09,29,07,07,8.20
2008,09,29,07,08,8.20
2008,09,29,07,09,8.20
2008,09,29,07,10,8.20
2008,09,29,07,11,8.20
2008,09,29,07,12,8.20
2008,09,29,07,13,8.20
2008,09,29,07,14,8.20
2008,09,29,07,15,8.10
2008,09,29,07,16,8.10
2008,09,29,07,17,8.10
2008,09,29,07,18,8.10
2008,09,29,07,19,8.10
2008,09,29,07,20,8.10
2008,09,29,07,21,8.10
2008,09,29,07,22,8.10
2008,09,29,07,23,8.10
2008,09,29,07,24,8.10
2008,09,29,07,25,8.10
2008,09,29,07,26,8.10
2008,09,29,07,27,8.10
2008,09,29,07,28,8.10
2008,09,29,07,29,8.10
2008,09,29,07,30,8.10
2008,09,29,07,31,8.10
2008,09,29,07,32,8.10
2008,09,29,07,33,8.20
2008,09,29,07,34,8.20
2008,09,29,07,35,8.20
2008,09,29,07,36,8.30
2008,09,29,07,37,8.30
2008,09,29,07,38,8.30
2008,09,29,07,39,8.40
2008,09,29,07,40,8.40
2008,09,29,07,41,8.40
2008,09,29,07,42,8.40
2008,09,29,07,43,8.50
2008,09,29,07,44,8.50
2008,09,29,07,45,8.60
2008,09,29,07,46,8.60
2008,09,29,07,47,8.60
2008,09,29,07,48,8.70
2008,09,29,07,49,8.70
2008,09,29,07,50,8.80
2008,09,29,07,51,8.80
2008,09,29,07,52,8.90
2008,09,29,07,53,8.90
2008,09,29,07,54,8.90
2008,09,29,07,55,9.00
2008,09,29,07,56,9.10
2008,09,29,07,57,9.10
2008,09,29,07,58,9.10
2008,09,29,07,59,9.20
2008,09,29,08,00,9.20
2008,09,29,08,01,9.20
2008,09,29,08,02,9.20
2008,09,29,08,03,9.30
2008,09,29,08,04,9.30
2008,09,29,08,05,9.30
2008,09,29,08,06,9.30
2008,09,29,08,07,9.40
2008,09,29,08,08,9.40
2008,09,29,08,09,9.40
2008,09,29,08,10,9.50
2008,09,29,08,11,9.50
2008,09,29,08,12,9.60
2008,09,29,08,13,9.60
2008,09,29,08,14,9.60
2008,09,29,08,15,9.70
2008,09,29,08,16,9.70
2008,09,29,08,17,9.70
2008,09,29,08,18,9.80
2008,09,29,08,19,9.80
2008,09,29,08,20,9.80
2008,09,29,08,21,9.90
2008,09,29,08,22,9.90
2008,09,29,08,23,9.90
2008,09,29,08,24,9.90
2008,09,29,08,25,9.90
2008,09,29,08,26,10.00
2008,09,29,08,27,10.00
2008,09,29,08,28,10.10
2008,09,29,08,29,10.10
2008,09,29,08,30,10.10
2008,09,29,08,31,10.10
2008,09,29,08,32,10.20
2008,09,29,08,33,10.20
2008,09,29,08,34,10.20
2008,09,29,08,35,10.20
2008,09,29,08,36,10.30
2008,09,29,08,37,10.30
2008,09,29,08,38,10.30
2008,09,29,08,39,10.30
2008,09,29,08,40,10.30
2008,09,29,08,41,10.30
2008,09,29,08,42,10.30
2008,09,29,08,43,10.30
2008,09,29,08,44,10.30
2008,09,29,08,45,10.30
2008,09,29,08,46,10.40
2008,09,29,08,47,10.40
2008,09,29,08,48,10.40
2008,09,29,08,49,10.40
2008,09,29,08,50,10.40
2008,09,29,08,51,10.50
2008,09,29,08,52,10.50
2008,09,29,08,53,10.60
2008,09,29,08,54,10.60
2008,09,29,08,55,10.60
2008,09,29,08,56,10.70
2008,09,29,08,57,10.70
2008,09,29,08,58,10.70
2008,09,29,08,59,10.80
2008,09,29,09,00,10.80
2008,09,29,09,01,10.80
2008,09,29,09,02,10.80
2008,09,29,09,03,10.90
2008,09,29,09,04,11.00
2008,09,29,09,05,11.00
2008,09,29,09,06,11.10
2008,09,29,09,07,11.10
2008,09,29,09,08,11.20
2008,09,29,09,09,11.20
2008,09,29,09,10,11.30
2008,09,29,09,11,11.30
2008,09,29,09,12,11.30
2008,09,29,09,13,11.30
2008,09,29,09,14,11.40
2008,09,29,09,15,11.40
2008,09,29,09,16,11.40
2008,09,29,09,17,11.40
2008,09,29,09,18,11.50
2008,09,29,09,19,11.60
2008,09,29,09,20,11.60
2008,09,29,09,21,11.70
2008,09,29,09,22,11.70
2008,09,29,09,23,11.80
2008,09,29,09,24,11.80
2008,09,29,09,25,11.80
2008,09,29,09,26,11.80
2008,09,29,09,27,11.80
2008,09,29,09,28,11.80
2008,09,29,09,29,11.80
2008,09,29,09,30,11.80
2008,09,29,09,31,11.80
2008,09,29,09,32,11.90
2008,09,29,09,33,11.90
2008,09,29,09,34,12.00
2008,09,29,09,35,12.10
2008,09,29,09,36,12.10
2008,09,29,09,37,12.20
2008,09,29,09,38,12.30
2008,09,29,09,39,12.30
2008,09,29,09,40,12.40
2008,09,29,09,41,12.50
2008,09,29,09,42,12.50
2008,09,29,09,43,12.60
2008,09,29,09,44,12.60
2008,09,29,09,45,12.70
2008,09,29,09,46,12.70
2008,09,29,09,47,12.80
2008,09,29,09,48,13.00
2008,09,29,09,49,13.20
2008,09,29,09,50,13.40
2008,09,29,09,51,13.60
2008,09,29,09,52,13.80
2008,09,29,09,53,14.00
2008,09,29,09,54,14.20
2008,09,29,09,55,14.30
2008,09,29,09,56,14.40
2008,09,29,09,57,14.50
2008,09,29,09,58,14.60
2008,09,29,09,59,14.60
2008,09,29,10,00,14.70
2008,09,29,10,01,14.80
2008,09,29,10,02,14.90
2008,09,29,10,03,15.00
2008,09,29,10,04,15.00
2008,09,29,10,05,15.00
2008,09,29,10,06,15.00
2008,09,29,10,07,15.00
2008,09,29,10,08,15.00
2008,09,29,10,09,15.00
2008,09,29,10,10,15.00
2008,09,29,10,11,15.00
2008,09,29,10,12,15.00
2008,09,29,10,13,15.10
2008,09,29,10,14,15.10
2008,09,29,10,15,15.20
2008,09,29,10,16,15.30
2008,09,29,10,17,15.30
2008,09,29,10,18,15.30
2008,09,29,10,19,15.40
2008,09,29,10,20,15.40
2008,09,29,10,21,15.40
2008,09,29,10,22,15.50
2008,09,29,10,23,15.60
2008,09,29,10,24,15.70
2008,09,29,10,25,15.80
2008,09,29,10,26,15.90
2008,09,29,10,27,16.00
2008,09,29,10,28,16.20
2008,09,29,10,29,16.20
2008,09,29,10,30,16.40
2008,09,29,10,31,16.50
2008,09,29,10,32,16.50
2008,09,29,10,33,16.60
2008,09,29,10,34,16.70
2008,09,29,10,35,16.80
2008,09,29,10,36,16.90
2008,09,29,10,37,17.00
2008,09,29,10,38,17.10
2008,09,29,10,39,17.10
2008,09,29,10,40,17.20
2008,09,29,10,41,17.20
2008,09,29,10,42,17.30
2008,09,29,10,43,17.20
2008,09,29,10,44,17.20
2008,09,29,10,45,17.30
2008,09,29,10,46,17.30
2008,09,29,10,47,17.30
2008,09,29,10,48,17.30
2008,09,29,10,49,17.30
2008,09,29,10,50,17.30
2008,09,29,10,51,17.40
2008,09,29,10,52,17.40
2008,09,29,10,53,17.40
2008,09,29,10,54,17.50
2008,09,29,10,55,17.50
2008,09,29,10,56,17.60
2008,09,29,10,57,17.60
2008,09,29,10,58,17.60
2008,09,29,10,59,17.60
2008,09,29,11,00,17.60
2008,09,29,11,01,17.70
2008,09,29,11,02,17.70
2008,09,29,11,03,17.70
2008,09,29,11,04,17.80
2008,09,29,11,05,17.90
2008,09,29,11,06,18.00
2008,09,29,11,07,18.10
2008,09,29,11,08,18.10
2008,09,29,11,09,18.10
2008,09,29,11,10,18.10
2008,09,29,11,11,18.10
2008,09,29,11,12,18.10
2008,09,29,11,13,18.10
2008,09,29,11,14,18.10
2008,09,29,11,15,18.10
2008,09,29,11,16,18.20
2008,09,29,11,17,18.20
2008,09,29,11,18,18.20
2008,09,29,11,19,18.30
2008,09,29,11,20,18.40
2008,09,29,11,21,18.50
2008,09,29,11,22,18.50
2008,09,29,11,23,18.60
2008,09,29,11,24,18.60
2008,09,29,11,25,18.60
2008,09,29,11,26,18.60
2008,09,29,11,27,18.70
2008,09,29,11,28,18.70
2008,09,29,11,29,18.60
2008,09,29,11,30,18.60
2008,09,29,11,31,18.70
2008,09,29,11,32,18.70
2008,09,29,11,33,18.70
2008,09,29,11,34,18.70
2008,09,29,11,35,18.70
2008,09,29,11,36,18.80
2008,09,29,11,37,18.80
2008,09,29,11,38,18.90
2008,09,29,11,39,18.90
2008,09,29,11,40,18.90
2008,09,29,11,41,18.90
2008,09,29,11,42,18.90
2008,09,29,11,43,18.90
2008,09,29,11,44,18.80
2008,09,29,11,45,18.80
2008,09,29,11,46,18.70
2008,09,29,11,47,18.60
2008,09,29,11,48,18.50
2008,09,29,11,49,18.30
2008,09,29,11,50,18.20
2008,09,29,11,51,18.10
2008,09,29,11,52,18.00
2008,09,29,11,53,18.00
2008,09,29,11,54,17.90
2008,09,29,11,55,17.90
2008,09,29,11,56,17.90
2008,09,29,11,57,17.80
2008,09,29,11,58,17.80
2008,09,29,11,59,17.80
2008,09,29,12,00,17.80
2008,09,29,12,01,17.70
2008,09,29,12,02,17.70
2008,09,29,12,03,17.70
2008,09,29,12,04,17.70
2008,09,29,12,05,17.70
2008,09,29,12,06,17.80
2008,09,29,12,07,17.80
2008,09,29,12,08,17.90
2008,09,29,12,09,17.90
2008,09,29,12,10,18.00
2008,09,29,12,11,18.10
2008,09,29,12,12,18.20
2008,09,29,12,13,18.30
2008,09,29,12,14,18.40
2008,09,29,12,15,18.50
2008,09,29,12,16,18.60
2008,09,29,12,17,18.70
2008,09,29,12,18,18.80
2008,09,29,12,19,18.80
2008,09,29,12,20,18.90
2008,09,29,12,21,18.80
2008,09,29,12,22,18.80
2008,09,29,12,23,18.90
2008,09,29,12,24,18.90
2008,09,29,12,25,18.90
2008,09,29,12,26,19.00
2008,09,29,12,27,19.00
2008,09,29,12,28,19.10
2008,09,29,12,29,19.20
2008,09,29,12,30,19.20
2008,09,29,12,31,19.30
2008,09,29,12,32,19.30
2008,09,29,12,33,19.30
2008,09,29,12,34,19.20
2008,09,29,12,35,19.30
2008,09,29,12,36,19.30
2008,09,29,12,37,19.30
2008,09,29,12,38,19.30
2008,09,29,12,39,19.40
2008,09,29,12,40,19.40
2008,09,29,12,41,19.40
2008,09,29,12,42,19.40
2008,09,29,12,43,19.40
2008,09,29,12,44,19.40
2008,09,29,12,45,19.50
2008,09,29,12,46,19.60
2008,09,29,12,47,19.80
2008,09,29,12,48,20.00
2008,09,29,12,49,20.10
2008,09,29,12,50,20.20
2008,09,29,12,51,20.30
2008,09,29,12,52,20.40
2008,09,29,12,53,20.50
2008,09,29,12,54,20.60
2008,09,29,12,55,20.70
2008,09,29,12,56,20.70
2008,09,29,12,57,20.70
2008,09,29,12,58,20.70
2008,09,29,12,59,20.80
2008,09,29,13,00,20.80
2008,09,29,13,01,20.80
2008,09,29,13,02,20.80
2008,09,29,13,03,20.70
2008,09,29,13,04,20.60
2008,09,29,13,05,20.60
2008,09,29,13,06,20.70
2008,09,29,13,07,20.90
2008,09,29,13,08,21.00
2008,09,29,13,09,21.00
2008,09,29,13,10,21.10
2008,09,29,13,11,21.00
2008,09,29,13,12,20.90
2008,09,29,13,13,20.80
2008,09,29,13,14,20.60
2008,09,29,13,15,20.40
2008,09,29,13,16,20.30
2008,09,29,13,17,20.30
2008,09,29,13,18,20.20
2008,09,29,13,19,20.20
2008,09,29,13,20,20.20
2008,09,29,13,21,20.20
2008,09,29,13,22,20.30
2008,09,29,13,23,20.40
2008,09,29,13,24,20.40
2008,09,29,13,25,20.40
2008,09,29,13,26,20.50
2008,09,29,13,27,20.50
2008,09,29,13,28,20.60
2008,09,29,13,29,20.60
2008,09,29,13,30,20.70
2008,09,29,13,31,20.80
2008,09,29,13,32,20.90
2008,09,29,13,33,21.00
2008,09,29,13,34,21.10
2008,09,29,13,35,21.20
2008,09,29,13,36,21.20
2008,09,29,13,37,21.20
2008,09,29,13,38,21.30
2008,09,29,13,39,21.30
2008,09,29,13,40,21.30
2008,09,29,13,41,21.40
2008,09,29,13,42,21.40
2008,09,29,13,43,21.50
2008,09,29,13,44,21.70
2008,09,29,13,45,21.80
2008,09,29,13,46,21.80
2008,09,29,13,47,21.80
2008,09,29,13,48,21.80
2008,09,29,13,49,21.90
2008,09,29,13,50,21.90
2008,09,29,13,51,21.90
2008,09,29,13,52,21.90
2008,09,29,13,53,21.90
2008,09,29,13,54,21.90
2008,09,29,13,55,21.90
2008,09,29,13,56,22.00
2008,09,29,13,57,22.10
2008,09,29,13,58,22.00
2008,09,29,13,59,21.90
2008,09,29,14,00,21.80
2008,09,29,14,01,21.80
2008,09,29,14,02,21.80
2008,09,29,14,03,21.80
2008,09,29,14,04,21.70
2008,09,29,14,05,21.70
2008,09,29,14,06,21.70
2008,09,29,14,07,21.60
2008,09,29,14,08,21.70
2008,09,29,14,09,21.70
2008,09,29,14,10,21.80
2008,09,29,14,11,21.90
2008,09,29,14,12,22.00
2008,09,29,14,13,22.10
2008,09,29,14,14,22.20
2008,09,29,14,15,22.30
2008,09,29,14,16,22.30
2008,09,29,14,17,22.30
2008,09,29,14,18,22.30
2008,09,29,14,19,22.30
2008,09,29,14,20,22.20
2008,09,29,14,21,22.00
2008,09,29,14,22,21.90
2008,09,29,14,23,21.80
2008,09,29,14,24,21.80
2008,09,29,14,25,21.90
2008,09,29,14,26,21.90
2008,09,29,14,27,21.90
2008,09,29,14,28,21.90
2008,09,29,14,29,21.90
2008,09,29,14,30,21.90
2008,09,29,14,31,21.80
2008,09,29,14,32,21.80
2008,09,29,14,33,21.80
2008,09,29,14,34,21.70
2008,09,29,14,35,21.60
2008,09,29,14,36,21.60
2008,09,29,14,37,21.70
2008,09,29,14,38,21.80
2008,09,29,14,39,21.90
2008,09,29,14,40,22.00
2008,09,29,14,41,22.00
2008,09,29,14,42,22.00
2008,09,29,14,43,22.10
2008,09,29,14,44,22.20
2008,09,29,14,45,22.20
2008,09,29,14,46,22.30
2008,09,29,14,47,22.30
2008,09,29,14,48,22.30
2008,09,29,14,49,22.40
2008,09,29,14,50,22.40
2008,09,29,14,51,22.40
2008,09,29,14,52,22.40
2008,09,29,14,53,22.40
2008,09,29,14,54,22.50
2008,09,29,14,55,22.60
2008,09,29,14,56,22.70
2008,09,29,14,57,22.80
2008,09,29,14,58,23.00
2008,09,29,14,59,23.10
2008,09,29,15,00,23.20
2008,09,29,15,01,23.20
2008,09,29,15,02,23.20
2008,09,29,15,03,23.20
2008,09,29,15,04,23.20
2008,09,29,15,05,23.20
2008,09,29,15,06,23.20
2008,09,29,15,07,23.20
2008,09,29,15,08,23.20
2008,09,29,15,09,23.20
2008,09,29,15,10,23.30
2008,09,29,15,11,23.30
2008,09,29,15,12,23.20
2008,09,29,15,13,23.00
2008,09,29,15,14,23.00
2008,09,29,15,15,22.90
2008,09,29,15,16,22.80
2008,09,29,15,17,22.80
2008,09,29,15,18,22.80
2008,09,29,15,19,22.80
2008,09,29,15,20,22.80
2008,09,29,15,21,22.70
2008,09,29,15,22,22.70
2008,09,29,15,23,22.70
2008,09,29,15,24,22.80
2008,09,29,15,25,22.90
2008,09,29,15,26,23.00
2008,09,29,15,27,23.10
2008,09,29,15,28,23.20
2008,09,29,15,29,23.20
2008,09,29,15,30,23.20
2008,09,29,15,31,23.30
2008,09,29,15,32,23.30
2008,09,29,15,33,23.30
2008,09,29,15,34,23.40
2008,09,29,15,35,23.40
2008,09,29,15,36,23.30
2008,09,29,15,37,23.30
2008,09,29,15,38,23.40
2008,09,29,15,39,23.40
2008,09,29,15,40,23.40
2008,09,29,15,41,23.40
2008,09,29,15,42,23.40
2008,09,29,15,43,23.30
2008,09,29,15,44,23.30
2008,09,29,15,45,23.30
2008,09,29,15,46,23.30
2008,09,29,15,47,23.30
2008,09,29,15,48,23.40
2008,09,29,15,49,23.30
2008,09,29,15,50,23.30
2008,09,29,15,51,23.30
2008,09,29,15,52,23.40
2008,09,29,15,53,23.40
2008,09,29,15,54,23.50
2008,09,29,15,55,23.60
2008,09,29,15,56,23.60
2008,09,29,15,57,23.60
2008,09,29,15,58,23.50
2008,09,29,15,59,23.50
2008,09,29,16,00,23.50
2008,09,29,16,01,23.50
2008,09,29,16,02,23.50
2008,09,29,16,03,23.50
2008,09,29,16,04,23.50
2008,09,29,16,05,23.50
2008,09,29,16,06,23.50
2008,09,29,16,07,23.40
2008,09,29,16,08,23.40
2008,09,29,16,09,23.40
2008,09,29,16,10,23.40
2008,09,29,16,11,23.40
2008,09,29,16,12,23.40
2008,09,29,16,13,23.40
2008,09,29,16,14,23.40
2008,09,29,16,15,23.40
2008,09,29,16,16,23.30
2008,09,29,16,17,23.30
2008,09,29,16,18,23.40
2008,09,29,16,19,23.40
2008,09,29,16,20,23.40
2008,09,29,16,21,23.40
2008,09,29,16,22,23.40
2008,09,29,16,23,23.40
2008,09,29,16,24,23.40
2008,09,29,16,25,23.40
2008,09,29,16,26,23.40
2008,09,29,16,27,23.40
2008,09,29,16,28,23.40
2008,09,29,16,29,23.40
2008,09,29,16,30,23.50
2008,09,29,16,31,23.50
2008,09,29,16,32,23.60
2008,09,29,16,33,23.70
2008,09,29,16,34,23.60
2008,09,29,16,35,23.50
2008,09,29,16,36,23.50
2008,09,29,16,37,23.40
2008,09,29,16,38,23.40
2008,09,29,16,39,23.40
2008,09,29,16,40,23.40
2008,09,29,16,41,23.40
2008,09,29,16,42,23.40
2008,09,29,16,43,23.40
2008,09,29,16,44,23.40
2008,09,29,16,45,23.50
2008,09,29,16,46,23.50
2008,09,29,16,47,23.60
2008,09,29,16,48,23.60
2008,09,29,16,49,23.60
2008,09,29,16,50,23.60
2008,09,29,16,51,23.60
2008,09,29,16,52,23.60
2008,09,29,16,53,23.60
2008,09,29,16,54,23.60
2008,09,29,16,55,23.60
2008,09,29,16,56,23.60
2008,09,29,16,57,23.60
2008,09,29,16,58,23.60
2008,09,29,16,59,23.50
2008,09,29,17,00,23.40
2008,09,29,17,01,23.40
2008,09,29,17,02,23.40
2008,09,29,17,03,23.40
2008,09,29,17,04,23.30
2008,09,29,17,05,23.30
2008,09,29,17,06,23.30
2008,09,29,17,07,23.40
2008,09,29,17,08,23.40
2008,09,29,17,09,23.40
2008,09,29,17,10,23.50
2008,09,29,17,11,23.50
2008,09,29,17,12,23.60
2008,09,29,17,13,23.60
2008,09,29,17,14,23.60
2008,09,29,17,15,23.60
2008,09,29,17,16,23.60
2008,09,29,17,17,23.60
2008,09,29,17,18,23.60
2008,09,29,17,19,23.50
2008,09,29,17,20,23.40
2008,09,29,17,21,23.30
2008,09,29,17,22,23.10
2008,09,29,17,23,22.90
2008,09,29,17,24,22.80
2008,09,29,17,25,22.60
2008,09,29,17,26,22.40
2008,09,29,17,27,22.30
2008,09,29,17,28,22.10
2008,09,29,17,29,22.00
2008,09,29,17,30,21.90
2008,09,29,17,31,21.80
2008,09,29,17,32,21.60
2008,09,29,17,33,21.50
2008,09,29,17,34,21.50
2008,09,29,17,35,21.40
2008,09,29,17,36,21.30
2008,09,29,17,37,21.30